Theta_e
290 290 289 289 288 288 288 288 288 288 288 288 289 288 288 288 287 287 286 286 286 286 286 286 286 286 286 286 285 285 285 285 285 284 284 284 283 283 282 282 282 282 282 282 282 282 281 281 281 281 280 280 280 279 279 278 278 277 277 276 275 275 275 275 274 274 277 277 275 275 275 274 274 274 273 273 273 273 273 273 274 274 274 275 275
290 290 289 289 289 288 288 288 288 288 288 288 288 288 287 287 287 287 286 286 286 286 286 286 286 286 285 285 285 285 285 284 284 284 284 283 283 283 282 282 282 282 282 281 281 281 281 280 280 280 280 280 279 279 278 278 277 277 276 275 275 274 274 274 273 273 275 276 275 274 274 274 273 273 273 272 272 273 273 273 273 274 274 274 274
290 290 290 289 289 289 289 288 288 288 288 288 288 288 287 287 287 286 286 286 286 285 286 286 285 285 285 285 285 285 284 284 284 284 284 283 283 282 282 282 282 281 281 281 281 280 280 280 280 280 280 279 279 279 278 278 277 276 275 275 274 274 274 273 273 273 273 274 274 273 273 273 273 273 272 272 272 272 272 273 273 273 274 274 274
290 290 290 290 289 289 289 288 288 288 288 288 287 287 287 286 286 286 286 286 286 285 285 285 285 285 285 285 285 285 285 285 285 284 284 284 283 282 282 281 281 281 280 280 280 280 280 279 279 279 279 279 279 278 278 277 276 275 275 275 274 274 274 273 273 273 273 273 273 273 273 273 273 272 272 272 272 272 272 273 273 273 274 274 274
290 290 290 289 289 289 288 288 288 288 288 287 287 287 287 286 286 286 286 286 285 285 285 285 285 285 285 285 285 285 285 285 285 285 285 284 283 282 281 281 281 280 280 280 280 279 279 279 279 279 279 279 278 278 277 276 275 275 274 274 274 274 274 273 273 273 273 273 273 273 273 273 273 272 272 272 273 273 273 273 273 273 274 274 274
290 290 289 289 288 288 288 287 287 287 287 287 287 287 286 286 286 286 286 286 285 285 285 284 284 284 284 285 285 286 286 286 286 286 285 284 283 282 281 280 280 280 280 279 279 279 279 279 278 278 278 278 277 277 276 275 275 275 274 274 274 274 273 273 273 273 273 273 273 273 273 273 273 272 272 273 273 273 273 273 273 274 274 274 274
290 289 289 288 288 287 287 287 287 287 287 287 287 286 286 286 286 285 285 285 285 285 284 284 284 284 284 285 285 286 286 286 286 285 284 283 282 281 280 280 280 279 279 279 279 278 278 278 278 278 278 277 277 276 275 275 274 274 274 274 274 274 273 273 273 273 273 273 273 273 273 273 273 273 273 273 273 273 274 274 274 274 274 275 275
289 289 288 288 287 287 287 287 287 287 287 287 286 286 286 286 285 285 285 285 285 285 284 284 284 284 284 285 286 286 286 286 285 284 284 283 281 281 280 280 279 279 279 278 278 278 278 278 278 277 277 277 276 275 275 274 274 274 274 274 274 273 273 273 273 273 273 273 273 273 273 273 273 273 273 273 274 274 274 274 274 274 275 275 275
289 288 287 287 287 286 286 286 287 287 287 286 286 286 286 285 285 285 285 285 285 285 285 285 285 284 284 285 286 286 286 285 284 284 283 282 281 280 280 279 279 278 278 278 278 278 278 278 277 277 277 276 275 275 274 274 274 274 274 274 273 273 273 273 273 273 273 273 273 273 273 273 274 274 274 274 274 274 274 275 275 275 275 275 275
288 287 287 286 286 286 286 286 286 286 286 286 286 286 285 285 285 285 285 284 284 285 285 285 285 285 285 286 286 285 285 284 284 283 282 281 281 280 280 279 279 278 278 278 278 278 278 277 277 277 276 276 275 275 274 274 273 273 273 273 273 273 273 273 273 273 273 273 274 274 274 274 274 274 274 275 275 275 275 275 275 275 275 275 275
287 287 287 286 286 286 286 286 286 286 286 286 286 286 285 285 285 285 284 284 284 285 285 285 285 285 285 286 285 285 284 284 284 283 282 281 281 281 280 280 279 278 278 278 278 278 278 277 277 276 276 276 276 275 274 274 273 272 273 273 273 273 273 274 274 274 274 274 274 274 274 274 275 275 275 275 275 275 275 275 275 275 275 275 275
287 287 286 286 285 285 285 285 286 286 286 286 286 285 285 285 285 284 284 284 284 284 285 285 285 285 285 285 285 284 284 284 283 282 281 281 282 282 281 280 279 278 278 277 277 277 277 277 277 276 276 276 275 275 274 273 272 272 272 273 273 274 274 274 275 275 275 275 275 275 275 275 275 275 275 275 275 275 275 275 275 275 274 274 274
287 286 286 285 285 285 285 285 285 285 285 285 285 285 285 285 285 284 284 284 284 284 285 285 285 285 285 285 285 284 284 283 282 281 280 280 281 281 281 280 279 278 277 277 277 277 277 277 276 276 276 275 275 274 273 272 272 272 272 273 274 274 274 274 275 275 275 275 275 275 275 275 274 274 274 274 274 274 274 273 273 273 272 272 272
287 286 286 285 285 284 284 284 284 284 285 285 285 285 285 285 284 284 284 284 284 285 285 285 285 285 285 285 284 284 284 283 282 280 280 280 279 279 280 279 278 277 277 277 277 277 276 276 276 276 275 275 274 273 273 272 272 272 273 274 274 274 275 275 275 275 275 275 274 274 274 274 274 273 273 273 273 272 272 272 271 271 271 271 270
287 286 286 285 284 284 283 283 284 284 284 284 285 285 285 284 284 284 284 285 285 285 285 285 285 285 285 284 284 284 283 283 282 280 280 280 279 278 279 278 278 277 277 276 276 276 275 275 275 275 274 274 273 273 272 272 273 274 274 275 275 275 275 275 275 274 274 273 273 273 273 273 272 272 272 271 271 271 271 270 270 270 270 270 270
287 286 286 285 284 283 283 283 283 283 284 284 284 284 284 284 284 284 284 285 285 285 285 285 285 285 285 284 284 283 283 282 282 281 280 279 278 279 279 278 277 277 276 276 275 275 275 275 274 274 273 273 273 272 272 273 274 275 275 275 275 275 275 274 274 273 273 272 272 272 272 271 271 270 270 270 270 270 269 269 269 269 269 270 270
287 287 286 285 284 284 283 283 283 283 284 284 284 284 284 284 284 284 285 284 284 285 285 285 285 285 284 284 284 283 282 282 282 281 280 279 278 279 279 278 277 277 276 275 275 275 274 274 274 273 272 272 272 272 273 275 275 275 275 274 274 274 274 273 272 272 272 272 271 271 271 270 269 269 269 268 268 269 268 268 268 268 268 269 269
288 287 286 286 285 284 284 283 283 283 283 284 284 284 284 284 284 285 285 285 285 285 285 285 285 284 284 284 284 283 282 282 282 281 280 278 278 279 279 278 277 276 276 275 274 274 273 273 273 272 271 272 272 273 274 275 275 275 275 274 274 273 273 272 271 271 271 271 271 271 270 269 268 268 268 267 267 267 267 267 267 267 267 267 267
288 287 287 286 285 285 284 284 284 283 283 284 284 284 284 284 285 285 285 285 285 285 285 285 285 284 284 283 283 282 282 281 281 281 280 278 278 279 279 278 277 277 276 275 274 273 272 272 272 271 272 272 273 274 275 275 275 275 274 274 273 272 272 271 271 271 271 271 270 269 268 268 268 268 267 267 266 266 266 266 266 266 266 266 266
288 288 287 286 286 285 285 284 284 283 283 284 284 284 284 284 284 284 284 284 284 284 284 284 284 284 284 283 282 282 281 281 281 280 279 278 277 278 278 278 277 276 275 273 273 272 272 271 271 271 272 273 274 274 275 275 275 274 274 273 272 272 271 271 271 271 270 269 269 268 268 268 267 267 267 266 266 266 266 266 266 266 266 266 266
288 288 287 286 286 286 285 285 284 284 284 284 284 284 283 283 284 284 284 283 283 283 283 283 283 283 283 282 282 282 281 280 280 280 279 278 277 277 277 278 277 276 274 272 271 271 271 271 271 271 272 273 274 274 274 274 274 274 273 272 272 272 272 271 271 270 269 268 268 268 268 267 267 267 266 266 266 266 266 266 266 266 266 266 266
288 288 287 287 286 286 285 285 284 284 283 283 283 283 282 282 282 282 282 282 282 282 282 282 282 282 282 281 281 281 281 280 279 280 279 278 276 276 276 277 276 275 273 271 271 270 270 270 271 271 272 273 274 274 275 274 273 273 272 271 272 272 271 270 270 269 268 268 267 267 267 267 266 266 266 266 266 266 266 266 266 266 266 266 266
288 288 287 287 287 286 285 285 284 284 283 283 283 283 282 282 281 281 281 281 280 281 281 281 280 281 281 280 280 281 280 279 279 279 279 277 276 276 275 275 275 273 272 271 271 270 271 271 271 272 272 273 274 274 274 273 272 271 271 271 271 271 270 269 269 268 268 267 267 267 267 266 266 266 266 266 266 266 265 266 266 265 266 266 266
288 287 287 287 286 286 285 285 284 284 283 283 282 282 282 281 280 280 280 279 279 279 279 279 279 279 279 280 280 280 280 279 279 279 278 277 276 275 275 274 274 273 272 271 271 271 271 271 271 272 273 274 274 274 273 272 271 270 270 270 270 269 268 268 268 268 267 267 267 266 266 266 266 266 266 266 266 266 265 265 265 265 265 265 265
287 287 287 287 286 286 285 284 284 284 283 283 282 282 281 280 280 279 279 278 278 278 278 277 278 278 279 279 280 280 280 279 279 279 278 277 276 275 275 274 274 274 273 272 272 272 272 272 272 273 273 274 274 273 273 272 271 269 269 269 268 268 268 268 267 267 267 266 266 266 266 266 266 266 266 266 266 265 265 265 266 266 265 265 266
287 287 286 286 286 285 285 284 283 283 282 282 282 282 281 281 280 279 279 278 278 277 277 277 277 277 278 278 279 280 279 279 278 278 278 277 276 275 275 273 273 274 274 274 273 273 273 273 273 273 274 274 273 272 272 271 270 269 268 268 268 268 268 267 267 267 266 266 265 266 266 266 266 266 266 266 265 265 265 265 265 265 265 265 265
287 287 286 286 286 285 285 284 283 282 282 281 281 281 281 281 280 279 279 278 277 276 276 276 276 276 277 277 278 278 278 278 278 278 278 277 276 276 275 273 273 274 274 273 273 273 272 272 273 273 273 273 272 271 271 270 269 268 268 268 268 268 267 267 267 266 266 265 265 265 266 266 266 266 266 265 265 265 265 265 265 265 265 264 264
287 287 287 286 285 285 284 284 283 283 282 282 281 281 280 280 280 280 280 280 279 278 277 276 276 277 277 277 276 277 277 278 278 279 279 278 277 276 275 274 273 273 272 272 272 271 271 271 272 272 272 271 271 271 271 270 269 268 268 268 267 267 267 266 266 266 265 265 265 266 266 266 265 265 265 265 265 265 265 265 265 265 264 264 264
287 287 286 286 285 285 284 284 283 283 282 282 282 281 281 281 281 281 281 281 281 280 279 279 279 279 278 278 277 277 278 279 280 280 280 279 277 276 275 274 273 272 272 272 271 271 271 271 271 271 271 271 271 271 270 270 269 268 268 267 267 267 266 266 266 266 266 266 266 266 266 265 265 265 265 265 265 265 265 265 265 265 264 264 264
287 286 286 285 285 285 284 283 283 283 282 282 282 281 281 280 280 280 281 280 280 279 279 279 279 279 278 278 279 279 279 280 281 280 279 277 276 275 274 273 272 272 271 272 272 272 271 271 271 271 271 271 271 270 270 270 269 268 268 267 267 267 266 266 265 265 265 265 265 265 265 265 265 265 265 265 265 265 265 265 265 265 264 264 264
287 286 286 286 286 285 285 284 283 282 282 281 281 280 279 279 279 279 278 278 278 278 277 277 277 277 277 277 278 278 278 278 278 278 277 276 275 274 273 272 272 271 272 272 272 272 272 272 271 271 271 271 270 270 270 269 268 268 268 267 267 266 266 265 265 265 265 265 265 265 265 265 265 265 265 265 265 265 265 265 264 264 264 264 263
288 287 287 287 287 286 285 284 283 282 281 280 279 278 277 277 277 277 277 276 276 276 276 275 275 275 275 276 276 276 276 276 276 276 275 275 273 273 273 272 272 272 273 273 273 273 272 272 272 271 271 270 270 270 269 269 268 267 267 267 267 266 266 265 265 265 265 265 265 265 265 265 265 264 264 264 264 264 264 264 264 264 264 263 263
288 288 287 287 286 285 284 283 282 282 281 280 279 278 277 276 276 276 276 275 274 274 274 274 274 274 274 275 275 275 275 275 275 274 274 273 273 273 273 273 273 274 274 274 274 273 272 272 272 271 271 270 270 269 269 268 267 267 267 267 267 266 266 265 265 265 264 264 264 265 265 265 264 264 264 264 264 264 264 264 264 264 263 263 263
286 286 286 286 285 285 284 283 283 282 281 281 279 278 278 277 276 275 274 273 273 273 273 273 273 274 274 274 274 274 274 274 273 273 273 273 273 273 274 274 274 274 274 274 273 273 272 272 271 271 271 270 269 269 268 267 267 266 266 266 266 266 265 265 265 265 264 264 264 264 264 264 264 264 264 264 264 264 264 264 264 264 263 263 263
285 285 285 284 284 284 284 283 283 282 281 280 279 278 277 276 274 273 272 272 273 273 273 273 274 274 274 274 274 274 274 273 273 273 273 273 274 274 274 274 274 273 273 273 273 273 272 272 271 271 270 269 269 268 267 267 266 266 266 265 265 265 265 265 265 265 264 264 264 264 264 264 264 263 263 263 264 264 264 264 264 264 263 263 263
285 285 285 284 283 283 283 282 281 280 279 278 278 276 275 274 273 272 272 272 272 272 273 273 273 274 274 275 274 274 274 273 272 273 273 274 274 274 274 273 273 272 272 272 272 272 271 271 271 270 269 268 268 267 267 266 266 265 265 265 265 265 265 265 265 264 264 264 264 264 264 263 263 263 263 263 263 264 264 263 263 263 263 263 263
284 284 284 283 283 282 281 280 279 278 277 277 275 274 273 273 272 272 271 271 271 271 272 272 272 273 273 274 274 274 274 274 274 274 274 274 274 274 273 272 272 271 271 271 270 270 270 270 270 269 268 268 267 267 266 266 265 265 265 265 265 264 264 264 264 264 264 264 264 264 263 263 263 262 262 262 263 263 263 263 263 263 263 263 263
283 283 282 282 281 280 279 279 278 277 276 275 275 274 273 272 271 271 271 270 270 270 270 271 271 272 272 273 273 273 274 274 274 274 274 274 274 273 273 272 271 271 270 270 269 269 269 269 269 268 268 267 267 266 266 265 265 265 265 264 264 264 264 264 264 264 264 264 264 263 263 263 263 262 262 261 262 262 262 262 262 262 262 262 262
281 281 280 280 279 278 278 277 277 276 275 274 274 273 272 271 271 270 270 269 269 269 269 270 270 271 271 272 272 272 273 273 273 273 273 273 272 272 272 272 271 270 270 270 269 269 269 268 268 267 267 266 266 266 265 265 265 264 264 264 264 264 264 264 264 264 264 263 263 263 263 262 262 262 261 261 261 261 261 261 262 262 262 261 261
280 280 279 278 277 277 276 275 275 274 274 273 273 272 271 270 270 270 269 268 268 268 268 269 269 270 270 271 271 272 272 272 271 271 271 271 271 271 271 271 270 270 269 269 269 268 268 267 267 267 266 266 266 265 265 265 264 264 264 264 264 264 264 264 264 264 264 263 263 263 262 262 262 261 261 261 261 261 261 261 261 261 261 260 260
278 278 278 277 277 276 275 274 274 273 273 272 272 271 271 270 269 269 269 268 268 268 268 268 269 269 270 270 270 271 271 271 270 270 270 270 270 270 270 270 269 269 268 268 267 267 267 267 266 266 266 265 265 265 265 264 264 264 264 264 263 263 264 264 264 263 263 263 263 262 262 261 261 261 261 261 260 260 260 260 260 260 260 260 260
277 277 276 276 275 274 273 273 273 272 272 271 271 270 270 270 269 269 268 268 268 268 267 267 268 268 268 269 269 269 269 269 269 269 269 269 268 268 268 268 268 268 267 267 267 267 266 266 266 265 265 265 265 265 265 264 264 264 264 264 263 263 263 263 263 263 263 263 262 262 261 261 261 261 261 260 260 260 260 259 259 259 260 260 260
276 275 275 274 274 273 273 272 272 271 270 270 270 270 269 269 268 268 268 267 267 267 266 266 267 267 267 267 267 267 267 267 268 268 268 267 267 267 267 267 267 267 267 267 266 266 266 265 265 265 265 265 265 264 264 264 264 264 264 263 263 263 263 263 263 263 262 262 262 261 261 261 261 260 260 260 260 259 259 259 259 259 259 259 260
275 274 274 273 273 272 272 271 270 270 270 269 269 268 268 268 267 267 267 267 266 266 266 266 267 267 267 267 267 267 267 266 267 267 267 266 266 267 267 267 267 266 266 266 266 265 265 264 264 264 264 264 264 264 264 264 264 264 263 263 263 263 263 263 263 262 262 262 261 261 261 261 260 260 260 260 259 259 258 259 259 259 259 259 259
274 273 272 272 271 270 270 270 269 269 268 268 268 267 267 267 267 266 266 266 266 266 266 266 266 266 267 267 267 267 267 266 266 266 266 266 266 266 266 266 266 266 265 265 265 264 264 264 264 264 264 264 264 264 264 263 263 263 263 262 262 262 262 262 262 262 261 261 261 261 261 260 260 260 260 260 259 258 258 258 258 258 258 258 259
271 271 270 270 269 269 268 268 268 267 267 267 267 266 266 266 266 266 266 266 266 266 266 266 266 266 267 267 266 266 266 266 265 265 266 266 266 266 266 265 265 265 264 264 264 264 263 263 263 263 263 263 263 263 263 263 262 262 262 262 262 262 262 262 262 261 261 261 261 260 260 260 260 260 260 260 259 258 258 258 258 258 258 258 259
270 269 268 268 268 268 267 267 267 266 266 266 266 266 266 266 265 265 265 265 265 265 265 266 266 266 266 266 266 265 265 265 265 265 265 265 265 265 265 264 264 264 264 264 263 263 263 263 263 262 262 262 262 262 262 262 262 262 262 262 262 262 262 262 261 261 261 260 260 260 260 260 260 260 260 260 259 259 258 258 258 258 258 258 259
268 268 267 267 267 266 266 266 266 266 265 265 265 265 265 265 265 265 265 265 265 265 265 265 265 265 265 265 265 265 265 264 264 264 264 264 264 264 264 264 263 263 263 263 263 263 263 263 263 262 262 262 262 262 262 262 262 262 262 262 262 262 261 261 261 261 260 260 260 260 260 260 259 260 260 260 259 259 259 258 258 258 258 258 258
266 266 266 266 266 266 266 265 265 265 265 265 264 264 264 264 264 264 264 264 264 264 264 265 264 264 264 264 264 264 264 264 264 264 264 264 264 264 263 263 263 263 263 263 263 263 263 263 263 263 262 262 262 262 262 262 262 262 262 262 261 261 261 261 261 261 260 260 260 260 260 259 259 259 259 259 259 259 259 258 258 258 258 257 258
265 265 265 265 265 265 265 265 265 265 264 264 264 264 264 264 264 264 263 264 264 264 264 264 264 264 264 264 264 264 264 263 263 263 263 263 263 263 263 263 263 263 262 262 263 262 262 262 262 262 262 262 262 262 262 262 262 262 262 261 261 261 261 261 261 261 261 261 260 260 260 260 259 259 259 259 259 259 259 258 258 258 257 257 258
264 264 264 264 264 264 264 264 264 264 264 264 264 264 263 263 263 263 263 263 263 263 263 263 263 263 263 263 263 263 263 263 263 263 263 263 263 263 262 262 262 262 262 262 262 262 262 262 261 261 261 261 261 261 261 261 261 261 261 261 261 262 262 262 262 262 261 261 261 260 260 259 259 259 259 259 259 258 258 258 258 258 257 258 258
Wind_Speed
40 41 40 40 40 40 39 38 38 37 35 34 33 32 31 30 29 28 26 25 23 22 21 19 18 17 16 15 13 12 11 10 8 7 5 4 4 3 3 3 2 2 1 1 1 1 1 2 2 3 2 3 4 5 6 6 7 8 7 7 8 6 9 11 11 21 34 31 25 26 29 30 29 26 28 33 34 33 31 30 30 29 28 29 30
42 42 41 41 41 40 39 39 38 37 36 34 33 32 31 30 29 28 26 25 23 22 21 20 18 17 16 15 14 13 11 10 9 7 6 5 4 3 3 3 2 2 2 2 2 2 3 3 3 4 3 4 5 6 7 8 8 9 9 8 10 10 9 12 13 16 28 34 29 28 30 29 28 27 28 31 34 33 31 31 30 29 29 30 30
43 42 42 42 41 41 40 39 39 38 37 35 34 33 32 31 29 28 27 26 24 22 21 20 19 18 17 16 14 13 12 10 9 7 6 5 3 3 3 3 3 3 3 4 4 3 3 3 4 4 4 5 6 7 8 9 9 10 10 10 11 13 11 11 13 14 22 31 30 27 29 29 27 27 28 30 31 31 31 32 30 29 29 29 29
43 42 42 42 41 41 41 40 40 39 37 36 35 34 33 32 30 29 28 27 25 23 22 21 20 19 18 17 15 14 12 10 9 7 5 4 3 2 2 3 3 4 4 4 4 4 3 4 5 5 6 6 7 8 8 9 10 10 11 11 11 13 13 11 13 15 19 27 29 25 25 28 29 27 27 30 32 31 31 31 30 30 28 28 29
43 42 42 42 41 41 41 41 40 39 38 37 35 34 34 33 31 30 29 28 26 25 23 22 20 19 18 17 16 14 12 10 8 6 4 3 2 2 3 4 4 4 4 4 4 5 5 5 6 6 7 8 8 9 10 10 11 11 11 12 12 13 14 13 13 14 16 21 25 24 23 25 28 27 25 29 35 36 33 31 30 28 28 29 30
43 42 42 42 42 41 41 42 41 40 38 37 36 35 34 33 32 31 29 28 27 25 24 22 20 19 18 17 15 13 11 9 8 6 5 4 3 4 4 4 5 4 4 4 5 6 6 6 7 7 7 9 9 10 11 11 11 12 12 12 13 13 14 13 11 12 14 17 20 23 23 23 25 26 26 29 33 35 35 32 29 26 28 30 32
43 42 42 42 42 42 42 42 41 40 39 38 37 36 34 33 32 31 29 28 27 26 24 22 20 18 17 16 14 12 11 10 8 7 6 5 5 5 5 5 5 4 4 5 6 7 7 7 7 8 8 9 10 10 11 12 12 12 13 13 13 13 13 12 11 11 14 17 19 20 22 22 23 27 31 32 31 29 30 31 31 30 30 31 33
43 43 42 42 43 43 42 41 41 40 39 38 37 36 35 33 32 30 29 28 27 26 24 22 21 19 17 15 14 12 11 10 9 8 6 6 6 6 5 4 4 5 5 6 7 7 8 7 7 7 8 9 10 11 11 12 13 13 13 13 13 13 13 13 13 14 16 18 19 21 23 24 26 30 32 31 28 28 30 31 31 34 37 35 33
43 43 43 43 43 43 42 41 41 40 40 39 39 37 36 35 33 31 30 29 28 26 24 23 21 20 18 15 14 12 11 11 9 7 7 7 6 5 4 4 4 5 6 7 7 7 7 7 6 7 9 9 10 11 12 11 12 12 13 12 12 13 14 14 15 16 18 19 20 21 21 21 24 28 30 30 31 32 34 33 32 37 39 36 33
43 43 43 42 41 41 41 41 41 41 41 40 39 38 37 36 34 32 31 30 28 26 25 23 21 20 19 17 15 14 12 11 9 8 8 7 6 4 4 5 5 6 6 6 7 7 6 6 7 8 10 11 12 13 12 12 11 11 11 11 12 13 14 15 17 18 19 20 20 20 18 20 26 30 32 35 35 32 31 32 33 34 32 28 27
42 42 42 40 40 40 42 42 42 42 42 41 40 39 38 36 35 34 33 32 29 27 26 24 23 21 19 17 16 15 13 11 10 9 9 8 6 4 4 6 6 7 7 7 7 7 7 7 8 9 11 12 13 13 13 13 12 11 10 9 10 11 13 16 19 19 19 20 21 22 22 25 29 29 26 28 29 29 30 31 29 29 27 23 23
41 41 40 39 39 40 41 42 43 43 43 42 41 40 39 37 37 36 35 32 30 28 26 25 24 22 20 19 17 16 13 12 11 10 9 7 5 5 5 6 8 8 8 8 8 8 9 9 9 11 12 13 13 14 14 13 10 9 9 9 9 10 12 15 18 20 21 22 24 24 22 22 24 24 24 27 30 32 32 28 25 26 26 24 23
39 38 38 38 39 40 41 42 43 43 43 43 42 41 40 39 39 38 36 33 31 29 27 25 24 22 21 19 18 16 14 13 12 12 10 8 7 7 7 8 9 9 10 10 10 10 10 11 11 12 12 12 12 12 12 10 9 9 10 11 12 12 13 15 17 19 21 23 25 25 23 22 25 28 28 30 31 31 29 27 26 26 25 25 26
37 36 37 38 38 39 41 42 42 43 43 42 42 41 41 41 40 38 36 34 32 30 28 27 25 24 22 20 18 17 16 15 14 13 11 9 9 10 10 10 10 11 11 11 11 11 11 12 13 12 11 11 11 10 9 9 11 13 15 16 16 17 17 18 17 16 18 20 23 25 25 24 25 28 29 30 30 29 28 28 28 26 27 28 28
34 35 36 37 37 38 39 40 41 41 42 42 42 42 42 42 41 39 37 35 33 31 30 28 27 25 22 21 20 18 17 16 15 14 12 11 11 12 13 13 12 12 12 12 12 13 12 13 13 12 11 10 8 8 9 11 13 15 17 18 19 18 17 15 14 16 19 21 21 22 23 23 25 28 30 31 29 27 26 26 27 27 28 29 28
33 34 36 37 37 39 39 40 40 41 42 42 42 43 43 42 41 40 37 35 33 32 31 30 28 26 24 23 22 20 19 18 16 15 14 13 13 14 14 14 13 13 14 14 14 14 13 13 12 11 10 9 7 7 9 12 14 16 18 18 18 16 15 15 17 19 19 18 18 19 23 25 26 27 27 26 24 25 25 25 24 24 25 26 24
36 37 38 38 38 39 40 40 40 41 43 44 44 45 44 43 41 40 38 36 35 34 33 31 29 27 26 25 24 22 21 19 18 16 16 15 15 15 15 15 15 15 15 15 15 14 13 12 11 10 10 8 7 8 11 12 13 16 18 18 17 16 17 21 23 20 16 16 18 22 27 28 26 25 23 21 20 21 21 21 21 21 21 20 18
39 39 39 38 38 39 40 41 42 43 44 45 46 46 44 43 42 41 39 38 37 36 34 32 30 29 28 27 25 23 22 21 19 18 17 17 17 16 16 16 16 16 16 16 16 15 13 11 9 9 10 8 7 10 11 11 13 15 16 16 16 18 21 24 23 19 17 19 22 26 28 26 22 20 19 17 17 17 17 18 20 20 19 17 18
40 39 38 37 38 40 41 42 43 43 45 46 46 46 45 44 43 42 40 39 38 37 36 34 32 31 30 29 26 24 23 22 21 20 19 18 18 18 17 17 17 18 17 17 17 15 12 10 7 8 10 11 10 11 10 10 12 15 15 15 18 21 23 21 18 18 21 24 27 28 25 21 18 17 16 16 16 15 14 14 17 19 18 18 19
37 37 36 36 38 40 42 43 44 44 45 45 45 45 45 44 43 42 41 40 39 38 37 36 35 33 32 30 28 26 25 24 22 21 20 19 19 19 19 18 18 18 18 18 17 14 11 9 8 7 10 12 11 10 10 10 12 15 15 16 18 20 19 16 15 19 24 27 27 24 20 18 16 15 16 17 17 16 15 15 16 18 19 20 20
34 36 36 37 39 41 42 44 44 44 44 44 43 43 43 43 43 43 42 41 40 39 38 37 36 35 33 31 30 28 27 25 23 22 21 21 20 20 20 19 19 18 18 18 16 13 11 10 8 6 9 12 10 9 10 9 10 14 16 16 16 16 15 16 19 23 25 25 23 20 18 17 16 15 16 17 18 18 19 18 18 19 20 21 22
34 36 36 38 39 40 42 43 42 42 42 41 41 41 41 41 41 41 41 40 40 39 38 37 37 36 34 32 31 30 28 26 24 23 22 22 22 21 21 20 19 18 18 18 16 13 11 10 8 7 10 12 10 10 10 9 10 14 16 14 12 12 15 19 22 23 22 20 19 18 17 16 16 16 17 18 19 20 20 20 21 21 21 21 21
33 34 36 37 38 39 40 40 40 40 41 41 41 41 40 40 39 39 39 39 38 38 38 37 36 35 35 34 33 31 29 27 26 25 24 23 23 22 22 20 18 18 19 19 17 14 12 11 9 9 11 12 11 10 8 8 11 15 14 11 11 14 18 20 20 20 19 17 17 17 16 16 16 17 18 19 21 21 21 22 22 22 22 22 22
30 32 34 35 36 37 37 38 39 40 40 40 40 39 39 38 38 37 38 38 37 38 38 36 35 35 36 36 35 34 31 29 27 26 25 24 23 22 22 20 18 18 19 18 16 14 13 12 11 11 12 14 12 10 9 11 15 14 10 9 13 16 18 18 17 17 17 16 16 16 15 14 15 16 17 19 20 21 23 24 24 24 24 24 24
28 31 32 33 34 34 35 36 37 38 39 39 39 39 39 38 37 37 37 37 37 38 37 37 36 37 37 38 38 36 33 31 29 27 25 25 24 23 22 21 19 19 19 19 17 16 14 13 13 13 14 13 12 12 13 16 18 14 10 11 15 17 16 16 15 15 15 15 15 16 15 14 14 14 15 16 19 21 24 26 26 26 27 27 27
27 28 29 31 31 32 32 34 35 36 37 38 39 39 39 39 39 38 38 38 38 39 38 37 38 38 38 39 39 36 34 32 29 27 26 25 25 24 23 21 19 19 19 19 18 16 14 13 14 15 15 15 15 17 18 18 18 16 15 15 16 15 14 14 14 14 14 14 15 15 15 14 13 13 13 15 17 21 24 27 28 29 30 30 29
24 26 27 28 29 30 32 33 33 34 35 36 37 37 38 39 39 39 39 39 39 39 39 39 39 39 40 40 38 35 34 32 30 28 27 27 26 25 24 22 20 19 20 21 19 17 16 16 15 16 17 18 19 19 18 18 19 18 17 16 15 14 13 13 13 13 13 14 15 15 15 14 13 13 13 14 17 20 22 25 27 29 30 30 29
22 24 25 27 28 29 31 32 33 34 35 36 37 38 39 39 40 42 44 43 43 42 42 42 43 43 43 40 37 33 33 33 32 30 30 29 28 26 25 24 23 23 23 21 18 16 16 17 18 19 19 19 18 18 17 18 19 18 16 15 13 12 12 11 12 12 12 13 14 15 15 14 13 13 13 14 16 19 21 24 25 27 29 28 26
21 22 24 25 27 28 29 30 32 33 34 36 38 39 40 41 43 45 46 45 45 44 44 44 46 46 44 42 38 36 36 37 34 31 30 29 27 25 24 23 23 23 21 17 14 13 15 17 19 21 21 20 19 19 19 19 19 18 16 14 12 12 11 11 11 12 12 12 13 14 14 14 14 13 14 15 17 18 20 23 24 26 27 25 24
21 22 23 24 26 27 28 30 32 33 34 36 37 39 39 40 42 43 43 43 43 43 42 43 43 43 42 42 41 38 37 35 32 29 28 26 24 24 23 21 20 20 17 13 12 15 18 20 22 24 23 22 21 20 19 20 20 19 16 13 12 12 11 11 11 11 12 12 12 13 13 14 14 14 14 16 18 19 20 22 23 24 25 24 24
22 23 24 25 26 28 29 31 32 33 35 35 36 37 37 38 40 41 41 40 40 40 41 41 40 38 38 38 37 35 34 30 26 25 25 25 24 24 23 20 19 19 16 13 15 19 22 23 24 25 24 23 21 20 20 20 20 19 16 14 13 12 11 11 11 11 12 12 12 12 12 12 13 14 14 15 18 19 20 21 22 23 23 22 22
23 24 25 26 27 29 30 31 32 33 34 34 35 35 35 35 37 39 39 39 38 38 38 37 36 35 35 34 32 31 30 28 26 24 24 24 24 23 21 20 20 20 18 17 20 23 25 25 25 24 23 22 20 20 20 21 20 18 17 15 14 12 11 11 11 12 12 12 12 12 12 11 12 13 14 14 16 19 20 21 22 23 23 22 20
25 26 26 27 28 29 31 31 32 33 34 34 35 35 35 35 35 35 34 33 33 32 32 34 34 32 31 31 30 29 27 26 26 25 24 23 22 21 20 21 21 20 19 20 22 24 24 25 25 24 22 21 21 21 21 21 19 18 17 16 15 14 12 12 12 13 12 12 13 13 12 11 12 13 14 15 15 17 19 21 22 22 22 21 21
26 26 25 26 27 29 30 31 32 33 34 34 35 35 36 36 35 31 27 26 27 27 28 29 30 28 26 25 26 26 26 25 25 24 22 21 20 20 20 20 20 19 20 22 24 24 24 25 25 24 23 22 23 22 21 20 19 18 17 16 16 15 14 13 13 13 13 13 13 12 12 12 12 13 15 16 16 17 18 19 20 22 22 21 21
26 26 25 25 26 27 29 30 31 32 33 34 34 35 35 34 32 29 26 26 27 27 27 27 27 26 25 23 23 23 23 24 24 22 21 20 20 19 19 20 20 21 22 24 25 26 26 27 27 25 24 23 23 22 21 20 20 19 18 17 16 16 15 14 14 14 14 14 14 13 13 12 12 13 15 16 17 17 18 19 20 21 21 19 20
26 27 28 28 28 28 28 29 30 30 31 31 31 32 31 30 29 29 28 27 27 27 27 27 26 25 24 22 22 21 21 21 22 21 20 20 20 20 21 23 23 23 24 25 24 24 25 26 26 24 23 23 23 22 21 20 20 19 18 17 17 16 16 15 15 15 15 15 15 14 14 13 13 13 14 16 17 17 17 19 20 21 20 18 18
25 27 28 29 29 28 28 28 28 28 28 28 28 28 28 28 28 28 28 28 28 27 26 24 24 24 24 24 24 22 20 20 20 20 20 20 20 22 24 25 24 23 24 25 25 24 24 24 25 24 24 24 24 22 20 19 20 19 19 18 17 17 17 16 16 16 16 17 17 16 15 15 15 14 14 16 18 18 18 18 20 21 20 18 18
24 25 26 27 27 27 27 27 27 26 26 26 27 27 27 27 27 27 27 27 27 27 25 24 23 25 27 27 26 24 22 21 21 21 21 21 21 23 25 25 24 24 24 25 26 26 27 27 26 26 26 26 24 22 20 19 20 19 19 19 18 18 18 18 17 17 17 18 18 17 17 16 16 15 15 16 18 19 19 19 19 20 20 19 19
22 23 24 24 24 24 25 25 26 25 25 26 26 26 27 27 26 27 27 27 26 25 25 25 26 27 28 28 27 27 26 25 24 24 24 24 23 24 24 24 25 25 25 25 26 26 27 28 28 28 27 25 23 20 20 20 20 20 20 19 19 19 19 19 18 18 18 19 19 18 18 18 17 16 16 17 18 19 19 18 18 18 19 21 20
20 21 22 22 22 23 23 23 23 24 24 25 25 25 26 26 26 26 25 25 25 25 25 26 28 29 28 28 29 29 30 29 28 27 27 26 26 26 26 26 26 26 26 26 26 26 27 28 28 28 25 23 21 20 20 20 20 20 20 20 20 21 20 20 19 19 19 19 20 19 19 19 18 17 18 18 17 16 16 18 19 19 20 20 20
17 18 19 20 20 21 21 22 22 23 23 23 24 24 25 25 25 24 23 24 24 25 25 26 28 28 27 28 29 30 30 30 29 28 28 27 27 27 27 27 27 27 28 27 27 27 27 28 27 26 23 21 21 21 21 21 21 21 21 21 21 21 21 20 20 20 19 20 20 20 20 19 18 18 18 18 16 15 17 19 19 19 20 20 20
15 16 17 17 18 19 20 21 21 21 21 22 23 23 24 24 23 23 23 23 24 24 24 24 25 24 24 25 25 25 26 27 27 26 26 26 25 26 26 26 26 27 27 26 26 26 26 26 25 24 23 22 22 22 22 22 22 22 21 21 21 21 21 21 21 20 20 20 20 20 19 19 18 18 18 18 18 18 19 19 19 20 21 21 19
14 15 15 15 16 17 18 19 19 19 20 21 21 22 22 21 21 22 22 22 22 22 22 23 23 23 22 21 20 19 21 23 23 23 23 23 24 24 24 24 24 24 24 24 23 23 24 24 24 24 23 23 22 22 23 23 22 22 22 22 22 22 22 22 21 21 20 20 19 19 19 19 18 18 19 19 19 19 18 19 20 21 20 19 18
13 14 14 15 15 16 16 17 18 18 19 19 19 19 19 19 20 20 20 21 21 21 22 22 22 22 21 20 18 19 20 21 22 22 22 22 23 23 23 22 22 22 22 22 22 22 23 23 23 23 23 22 23 23 23 22 22 23 22 22 23 23 23 23 22 20 19 19 19 19 19 19 19 19 19 19 19 19 19 20 20 20 19 18 18
12 13 13 13 14 15 15 16 16 17 17 17 17 18 18 18 19 19 20 20 21 21 21 21 21 20 19 19 19 21 22 22 22 21 21 21 21 20 20 19 19 19 19 20 20 20 21 22 22 22 23 23 23 23 23 22 22 23 23 23 24 25 24 23 21 19 19 19 20 19 19 19 19 19 19 19 19 19 20 20 20 20 20 19 18
10 11 11 12 12 13 14 14 14 15 15 16 16 17 17 18 19 19 19 19 20 20 19 19 19 18 18 18 19 21 22 22 22 21 20 20 19 19 18 18 18 18 18 18 19 20 21 22 22 23 24 24 23 24 23 23 23 23 23 23 24 24 24 22 20 19 18 19 19 19 19 20 20 20 20 20 19 20 20 21 21 21 20 19 17
8 9 9 10 11 11 12 12 13 13 14 15 15 16 16 17 18 18 18 18 18 18 18 18 17 17 17 17 18 19 20 20 20 20 20 19 19 19 19 19 19 19 19 19 20 21 22 22 23 24 24 24 24 24 24 23 23 22 23 23 23 23 22 20 19 18 18 18 19 20 20 21 22 22 21 21 20 21 21 22 22 21 20 18 17
7 8 8 9 10 11 11 12 12 13 14 14 15 15 16 16 17 17 17 17 17 17 17 17 17 16 16 17 17 17 18 18 18 18 18 19 18 18 19 19 19 19 20 20 20 21 22 23 23 23 24 24 24 24 23 23 22 21 21 21 21 20 19 18 18 19 18 19 20 21 22 23 23 23 22 22 22 22 22 22 22 21 20 18 17
6 7 8 9 9 10 11 11 11 12 13 13 14 14 15 15 16 16 16 16 16 16 16 16 15 15 16 16 16 16 17 17 17 17 17 17 17 17 17 18 18 19 20 20 21 21 22 23 23 24 24 24 24 23 23 22 22 21 20 20 19 18 18 18 19 19 20 20 21 22 23 23 23 23 23 23 22 22 22 21 21 21 20 19 19
6 6 7 8 8 9 10 10 11 11 12 12 13 13 14 14 15 15 15 15 15 15 15 15 15 15 15 15 15 16 16 16 16 16 15 15 15 15 16 16 17 18 19 20 20 20 21 22 23 24 24 24 24 23 23 22 21 20 19 19 18 18 19 19 20 21 21 21 22 23 23 24 23 23 23 22 21 21 21 20 20 20 20 20 20
5 6 7 7 8 8 9 10 10 11 11 11 12 12 13 13 14 14 15 15 15 15 15 14 14 14 14 14 14 15 15 15 14 14 14 14 14 15 15 16 16 17 18 19 19 20 20 21 22 22 22 22 22 22 22 21 20 19 19 19 19 19 20 20 21 21 21 21 22 22 22 22 21 21 21 20 19 19 20 20 19 20 19 19 20
Wind_Direction
176 176 178 178 177 177 178 177 174 171 168 166 165 164 163 162 161 160 159 158 158 157 157 155 153 152 150 148 147 147 145 140 135 137 144 152 163 174 182 187 201 215 213 237 235 220 239 246 269 290 305 313 321 329 330 329 328 326 326 320 314 307 303 301 285 288 300 307 307 310 315 319 323 328 328 327 330 333 333 332 333 334 334 335 334
178 178 179 180 180 180 180 179 176 173 170 169 168 167 166 165 164 163 162 161 162 162 160 158 157 156 154 153 153 151 148 145 143 147 156 163 171 181 196 213 227 236 238 252 255 242 237 243 258 278 296 315 321 325 325 324 324 322 322 321 317 316 312 306 295 287 297 305 310 314 319 323 324 326 329 328 329 332 330 329 331 331 331 332 330
180 180 181 182 183 183 182 181 178 175 173 172 171 169 168 167 167 166 165 164 165 165 164 162 161 160 159 158 158 154 151 149 148 150 157 164 174 189 213 233 241 245 245 248 251 246 246 257 269 283 298 312 317 318 318 318 317 316 318 321 319 317 319 312 300 289 292 301 309 317 321 323 324 324 327 328 328 328 326 325 327 326 326 328 326
181 182 182 183 184 184 183 181 179 177 176 175 173 172 170 170 170 170 169 168 167 167 168 167 165 164 164 163 160 156 152 150 149 151 157 166 185 209 231 244 246 246 248 250 256 263 267 269 277 290 300 305 311 313 313 314 316 319 322 324 323 320 322 318 304 294 291 297 306 315 319 320 320 322 326 329 328 326 322 321 323 322 323 323 322
182 183 183 184 185 185 184 182 180 179 178 176 175 174 173 173 172 173 172 170 169 170 171 171 170 168 169 166 160 156 153 149 150 153 163 177 200 230 242 249 252 250 252 259 267 274 278 279 281 287 295 302 310 313 314 317 319 323 325 324 325 324 322 319 311 301 292 292 302 311 316 317 318 319 324 327 325 324 322 320 319 320 321 321 319
183 183 184 185 185 185 184 183 181 180 180 178 177 177 176 175 175 175 175 173 171 173 174 174 172 173 174 168 160 157 154 151 155 161 172 185 206 233 240 245 252 252 255 264 269 275 277 278 281 286 294 304 311 314 315 318 321 322 324 323 322 323 321 318 311 302 295 293 300 307 312 316 318 317 320 323 320 319 319 319 317 318 319 319 317
184 184 186 186 186 186 186 184 182 182 181 180 179 179 178 178 178 177 177 175 174 175 176 174 173 177 178 171 162 160 156 157 164 169 176 190 206 224 234 241 254 261 266 269 266 269 273 272 277 287 297 305 310 313 315 317 319 318 318 318 317 318 318 313 306 301 300 299 301 305 308 312 314 313 316 319 317 315 317 317 314 315 317 315 313
184 185 186 186 187 188 186 185 184 183 182 181 181 180 180 180 180 179 179 179 178 178 176 174 174 179 182 175 165 162 162 166 172 173 179 195 208 222 234 244 258 266 265 267 263 261 268 273 279 289 298 303 306 308 309 310 311 311 312 313 313 313 312 309 306 303 301 300 301 304 305 305 308 312 314 317 315 313 315 314 307 308 312 311 309
185 186 187 188 189 188 186 185 185 185 184 183 183 183 182 181 181 182 183 183 182 179 177 176 177 180 182 176 170 170 172 173 174 179 190 202 212 224 239 249 259 262 257 257 260 262 269 278 285 293 299 301 301 299 296 296 300 305 308 309 310 311 311 310 307 304 301 298 297 299 297 294 302 310 311 312 310 307 309 309 302 302 307 305 304
186 187 189 189 189 187 186 186 186 186 186 186 185 185 184 183 183 184 186 187 184 181 180 180 181 183 183 178 176 178 179 178 179 189 201 210 217 228 250 262 263 262 262 261 269 278 283 287 293 297 299 300 298 295 292 291 292 296 301 305 307 308 308 307 305 302 298 295 294 296 292 289 298 304 302 304 306 304 305 305 302 302 305 302 303
188 189 190 190 189 188 187 188 187 188 188 187 187 187 186 185 185 187 190 189 185 183 183 183 184 187 186 182 182 184 184 183 187 198 211 218 224 234 255 272 276 276 279 282 286 290 293 295 297 298 299 299 297 295 294 294 292 293 299 304 304 304 305 305 304 302 299 295 296 297 292 290 296 300 300 302 305 307 308 305 303 306 310 311 312
190 191 191 191 190 189 189 189 189 189 189 189 189 189 187 187 189 191 192 190 187 186 186 187 188 190 189 186 187 188 187 190 196 205 216 226 243 261 270 278 282 285 289 291 292 293 295 296 297 298 299 297 297 297 298 298 298 302 309 309 304 304 305 303 304 305 302 299 298 298 296 297 303 308 310 311 310 311 312 311 312 315 315 316 313
192 193 192 192 192 191 190 190 190 190 190 191 191 190 190 191 193 194 194 190 189 189 189 191 193 193 193 191 191 192 192 197 203 208 216 226 245 266 278 281 281 284 287 289 291 293 294 295 295 295 294 293 294 297 299 304 313 324 331 328 320 320 316 306 301 301 301 301 301 303 307 311 312 311 313 316 316 317 318 318 318 318 314 311 307
193 194 195 195 195 193 192 192 191 191 191 192 193 193 194 195 195 196 195 192 191 190 192 195 197 198 198 197 197 198 198 202 207 209 214 222 235 253 268 274 276 280 283 285 288 290 292 292 291 290 288 288 294 302 310 321 329 332 333 326 318 318 317 312 309 308 310 310 307 308 311 313 312 313 317 321 320 319 318 317 315 315 311 307 305
196 197 197 198 197 195 194 193 193 192 193 194 195 196 197 199 199 198 197 195 193 193 195 198 200 200 201 202 203 204 205 207 209 212 217 222 230 243 257 265 270 275 279 282 284 285 286 284 283 284 287 292 307 320 320 319 321 320 318 313 312 313 314 316 319 320 318 315 312 311 312 313 316 317 317 318 316 314 313 311 311 313 311 308 308
199 199 200 200 199 197 196 195 194 194 195 196 198 200 201 201 201 200 199 198 197 198 200 202 203 203 204 206 207 207 209 211 212 214 219 223 229 240 251 259 265 271 276 280 279 279 279 278 279 284 291 305 328 324 302 300 306 309 310 311 313 311 307 307 311 313 313 311 308 305 303 306 313 315 313 315 316 316 316 314 316 320 316 310 311
203 203 203 202 201 200 198 197 196 196 197 198 200 202 203 203 203 202 201 201 200 202 204 205 206 207 208 210 211 210 212 214 215 217 221 224 229 240 249 256 263 269 273 275 274 274 274 274 281 289 295 314 328 302 290 296 303 306 308 308 305 304 305 308 310 310 307 301 298 299 302 307 313 312 313 319 323 325 325 323 326 330 324 317 317
205 205 205 204 202 202 201 200 200 200 200 202 203 204 205 205 205 205 204 204 204 205 206 207 208 210 212 214 214 213 215 217 217 219 223 225 231 241 249 255 261 266 268 269 269 270 271 275 285 287 291 306 308 288 288 298 303 304 305 303 304 309 313 313 311 308 304 301 301 306 311 316 319 320 326 333 334 334 332 327 327 330 326 321 321
207 206 207 206 204 204 205 205 205 204 204 205 205 206 207 208 208 208 208 208 209 209 209 209 211 212 214 216 216 215 217 220 221 222 224 227 233 242 249 253 258 263 265 266 266 265 266 273 283 281 281 287 287 283 287 297 301 303 302 303 309 314 312 310 308 308 310 310 312 315 319 324 330 337 346 349 345 341 333 323 323 325 321 317 318
208 208 209 208 207 208 208 209 209 209 209 209 208 209 210 210 210 211 211 211 212 213 213 212 214 215 216 216 217 216 218 221 224 225 227 229 234 242 248 252 257 260 263 263 262 260 260 270 284 283 274 273 274 278 284 291 298 301 300 304 311 311 306 303 305 308 311 312 314 317 324 334 343 350 353 352 351 347 337 327 323 320 315 313 313
208 210 210 210 211 211 212 212 213 213 214 213 212 212 212 212 213 213 213 213 214 216 216 216 217 218 218 218 218 218 218 221 224 228 230 231 234 240 247 252 256 259 260 259 257 257 262 273 287 287 270 267 270 273 277 287 296 296 295 301 308 306 297 295 300 305 307 310 312 318 329 340 347 353 352 351 351 349 342 336 330 323 317 312 309
211 211 211 212 213 214 214 215 215 216 217 216 215 215 215 215 216 216 215 214 215 217 218 219 219 220 220 220 221 221 220 220 223 228 232 233 234 237 245 253 257 257 256 254 253 257 263 272 286 285 269 264 264 266 274 287 291 289 292 300 303 293 286 290 298 303 306 310 314 321 334 345 348 350 351 349 349 348 344 340 336 331 325 318 313
213 212 213 214 215 216 216 217 217 217 218 218 218 218 218 218 218 218 217 217 217 218 219 221 221 221 221 222 222 223 222 221 222 226 231 234 234 235 241 248 251 251 252 253 253 256 264 272 281 278 264 259 262 267 271 282 289 290 296 301 291 279 282 291 299 304 307 312 316 322 336 346 346 346 348 346 346 347 345 342 340 337 333 329 322
214 214 215 216 217 218 218 218 218 219 220 220 219 219 219 219 219 219 219 219 218 219 220 221 221 222 223 224 224 223 223 222 223 225 229 233 235 235 237 239 240 241 247 254 256 256 261 268 270 268 264 262 260 257 257 274 291 298 299 290 280 280 288 297 302 305 308 312 316 322 333 341 343 343 343 341 343 346 347 344 343 341 338 334 329
214 215 216 217 218 219 219 219 220 221 221 220 219 219 220 220 220 220 221 220 220 221 221 221 222 223 224 226 226 225 224 224 223 225 227 231 234 235 236 234 231 230 237 248 254 255 256 258 259 263 264 256 246 247 261 281 295 298 289 280 283 287 294 298 300 303 307 310 314 318 325 332 336 338 337 338 343 349 350 347 346 346 345 340 337
215 216 217 219 220 220 220 220 220 221 221 222 222 223 223 222 222 221 222 221 222 222 223 223 224 224 226 228 228 227 225 224 224 225 228 230 232 233 233 231 228 226 232 240 246 247 248 249 255 259 255 246 249 261 274 287 296 294 286 283 286 289 291 294 297 300 303 307 310 312 317 323 327 330 333 337 343 350 351 348 345 346 346 343 341
217 217 218 219 220 220 220 220 220 220 221 222 222 224 225 225 224 223 222 222 221 222 223 224 224 225 227 229 229 227 226 225 225 225 227 229 231 232 231 228 224 224 229 232 234 237 240 241 245 251 250 250 259 267 275 287 294 291 285 282 282 284 288 290 293 295 297 300 304 307 311 316 319 324 331 336 342 347 348 345 343 343 344 344 341
218 219 220 220 220 221 221 222 221 221 222 223 223 224 225 225 225 227 228 227 225 224 224 224 225 227 228 228 227 226 226 226 225 226 229 231 231 231 230 227 224 223 227 231 235 239 238 234 236 246 253 258 263 265 273 287 292 286 280 278 277 280 285 286 286 285 286 290 296 303 310 314 317 324 331 335 339 343 343 343 342 342 344 345 342
217 219 220 219 221 222 222 223 224 224 225 226 227 228 229 230 230 233 235 235 234 233 232 232 233 233 232 231 229 226 226 230 231 232 233 234 234 234 233 231 229 226 227 231 232 230 228 228 234 242 250 256 260 262 271 285 289 282 277 276 275 277 281 283 283 282 282 288 296 304 311 315 317 323 330 332 335 338 339 340 340 341 343 343 338
214 217 218 220 222 223 223 224 225 226 227 228 229 230 231 233 234 236 238 238 238 237 238 239 241 240 238 238 236 234 235 240 241 237 234 233 233 233 233 232 230 226 223 221 224 228 230 233 236 240 244 248 251 257 270 284 286 280 275 274 275 276 279 282 284 286 289 295 301 306 310 313 316 322 328 328 330 334 335 336 338 340 341 339 334
213 216 220 223 225 225 225 225 226 226 227 228 229 229 230 232 234 236 238 239 239 239 239 241 243 243 243 243 243 241 242 243 240 235 232 229 227 228 229 226 221 218 217 217 226 234 236 235 237 239 239 240 245 257 274 284 282 276 274 274 275 275 278 281 285 288 293 297 302 306 308 310 312 317 322 324 326 328 330 332 336 339 339 336 331
217 220 224 226 226 226 226 226 226 226 226 227 228 229 230 233 235 236 237 238 241 242 241 240 241 243 245 245 244 242 240 238 233 228 226 225 224 224 223 218 214 214 219 225 231 234 234 233 236 236 234 238 249 265 277 280 276 271 271 273 273 274 277 281 285 290 294 298 302 305 308 309 309 311 315 319 322 323 324 328 334 337 337 335 331
224 226 227 226 225 225 226 225 226 226 227 227 228 229 229 231 234 237 236 236 239 243 243 241 241 241 243 244 243 240 238 234 231 228 225 222 220 217 214 214 215 217 222 229 235 236 234 233 235 234 236 246 259 269 274 274 271 268 267 268 271 275 277 279 283 288 291 295 298 302 306 308 310 310 312 314 316 317 319 323 329 334 335 333 329
229 231 232 231 229 228 228 228 229 230 231 230 230 231 231 232 234 236 234 230 232 237 239 239 238 235 234 236 238 237 235 231 227 225 221 216 212 211 212 216 219 221 224 229 235 239 238 235 233 235 244 254 261 266 271 270 267 264 264 265 268 272 276 278 280 284 288 291 294 298 302 305 310 313 312 310 310 311 313 316 322 329 331 329 325
236 238 240 240 239 238 237 236 235 234 233 233 233 233 234 234 234 234 233 229 228 231 233 234 231 227 226 227 227 228 231 229 223 217 213 210 209 210 213 217 219 221 225 230 235 239 239 236 236 241 249 256 261 266 270 266 262 261 262 263 266 269 272 275 277 281 286 289 292 296 301 305 310 310 308 306 305 306 310 312 315 320 324 322 320
241 242 243 245 245 245 244 243 241 239 238 238 238 237 237 237 236 235 235 234 233 233 235 235 230 224 223 224 222 219 219 220 215 209 209 211 210 210 213 217 219 221 224 229 236 239 236 235 238 244 251 257 263 268 268 262 259 260 261 262 264 266 268 272 275 279 283 287 291 297 301 303 306 306 304 302 300 299 302 306 308 312 316 315 314
245 246 246 246 247 246 246 246 246 245 243 243 243 242 240 240 238 237 236 235 234 234 235 234 229 221 217 219 219 215 213 215 214 214 215 215 212 213 218 221 222 224 226 231 236 239 237 237 242 248 254 261 266 268 265 258 256 258 260 261 263 265 267 271 274 276 281 285 289 294 298 298 301 304 304 302 299 297 298 301 303 306 309 308 309
250 250 251 250 250 249 249 248 248 247 246 245 244 243 241 240 238 236 236 235 235 234 231 228 224 219 217 216 215 212 211 214 215 214 214 214 213 217 222 225 227 229 232 234 237 240 242 245 249 253 257 263 265 263 259 256 255 257 258 260 262 264 266 269 272 275 280 284 286 290 293 293 295 300 302 300 297 295 295 296 299 302 304 304 306
255 255 255 254 254 253 253 251 250 248 245 244 242 240 239 238 235 234 234 233 233 231 229 226 224 222 219 218 214 209 208 210 211 209 208 210 215 219 224 229 231 233 236 239 241 243 246 248 251 254 258 262 261 258 256 255 255 257 258 259 261 262 264 267 271 274 277 280 284 287 290 291 294 297 297 295 294 294 294 294 296 297 298 300 302
262 261 259 258 257 257 256 255 252 249 246 244 242 240 238 237 235 234 233 232 232 231 229 227 227 226 224 221 217 212 209 210 213 213 213 216 220 222 226 229 232 234 237 240 242 245 248 250 253 257 260 260 257 254 255 256 256 257 258 258 259 262 264 267 271 273 276 280 284 287 289 292 295 295 293 292 293 292 289 288 289 290 293 297 299
264 264 263 261 259 258 256 254 252 251 248 246 244 241 240 239 238 237 236 235 234 233 231 231 231 230 228 226 222 218 215 216 218 221 223 226 228 230 231 233 236 238 241 244 246 248 251 253 257 261 261 258 254 254 255 257 256 256 257 259 260 262 264 267 270 273 277 280 283 287 290 292 293 292 291 291 289 283 281 283 285 288 292 297 299
264 265 265 265 262 259 256 254 253 252 249 247 244 243 242 241 239 238 237 237 236 235 233 233 233 231 229 227 223 220 221 223 225 227 232 235 236 237 238 239 241 244 247 250 252 254 255 257 260 262 260 257 255 255 256 257 258 259 259 261 262 263 265 267 270 273 277 280 284 287 289 290 289 289 289 288 286 285 285 285 283 287 293 299 302
263 264 265 265 262 259 257 255 254 251 248 246 245 244 243 242 240 238 237 237 236 235 233 232 232 230 228 226 221 216 220 226 229 230 234 236 237 239 240 241 243 247 250 253 254 254 256 258 259 259 259 257 256 257 258 259 260 261 262 263 264 266 268 270 271 274 278 282 284 285 285 284 285 286 287 288 288 289 288 284 285 291 297 301 302
260 260 259 258 257 255 253 251 249 248 247 246 245 242 241 239 238 237 236 236 235 235 235 234 233 231 228 224 217 212 216 226 230 231 233 235 237 240 243 245 247 249 251 252 253 254 255 257 257 257 257 257 257 259 260 260 261 262 263 265 267 268 269 271 274 278 281 282 281 280 281 282 283 283 284 286 288 288 287 287 290 295 298 298 297
257 255 254 252 250 248 246 244 244 243 241 240 239 237 236 235 234 233 234 234 234 236 236 234 233 231 228 224 219 216 218 224 229 232 235 239 242 245 247 248 251 252 252 252 254 255 256 258 258 259 259 260 261 262 263 262 263 263 264 266 268 269 272 275 278 279 279 278 277 279 280 280 280 281 282 285 287 287 287 289 292 294 295 296 296
255 253 251 248 245 243 241 239 239 238 236 235 234 233 232 232 232 232 233 233 234 235 235 233 231 230 228 224 223 223 224 227 230 233 238 243 248 252 253 253 254 256 256 256 256 257 258 259 260 261 263 263 265 265 265 265 265 265 265 267 268 270 273 276 277 276 276 276 277 278 278 278 279 280 281 284 286 285 285 287 289 291 293 293 292
252 248 245 243 241 239 237 235 234 234 234 233 233 233 232 232 232 232 232 232 232 232 232 231 230 230 228 226 226 228 230 232 235 238 241 245 248 252 255 258 259 260 260 260 260 260 261 262 262 264 265 265 266 267 267 267 267 266 266 267 268 270 272 274 274 273 274 273 274 275 275 276 278 279 280 282 282 281 283 285 287 290 292 289 284
245 240 237 237 234 231 231 230 229 230 231 230 231 234 234 233 233 232 231 231 230 230 230 231 231 230 230 231 232 234 235 237 240 242 243 245 247 249 253 257 260 261 261 262 262 262 264 265 266 267 268 268 268 268 268 268 268 267 267 268 268 269 271 272 271 272 272 271 272 272 273 274 275 276 277 278 278 279 282 284 285 289 290 285 280
238 232 230 230 229 228 229 229 228 229 231 231 231 233 233 232 232 232 231 231 231 231 232 233 233 233 234 236 237 239 240 241 243 245 246 247 249 251 253 256 257 258 260 261 262 263 265 267 267 268 268 269 269 269 269 269 269 269 269 269 269 269 270 270 271 272 272 271 271 271 271 272 273 274 274 275 276 277 279 280 282 286 287 283 282
230 227 226 228 228 228 230 231 231 232 232 231 232 233 234 233 234 234 233 233 233 233 234 234 235 237 240 242 243 244 246 246 247 249 250 252 253 254 255 255 256 257 258 260 261 263 264 264 265 266 267 267 268 269 269 270 270 270 270 270 270 270 271 271 272 273 273 273 273 273 272 272 272 272 272 273 273 274 275 277 280 284 284 281 281
229 228 228 230 231 231 232 233 232 233 233 232 233 235 236 237 238 237 237 238 239 238 239 241 242 244 247 249 250 251 251 252 252 253 253 255 256 258 259 261 261 262 263 263 263 264 264 264 265 266 266 266 266 267 267 268 269 269 270 271 271 272 272 273 273 273 272 271 271 271 271 271 272 272 272 272 272 273 275 278 280 281 279 277 278